User: anonymous   Login
Location: Reading
(52.0000°N, 0.0000°E)
Time: 22:03:50
(UTC+01:00)
Language:

Iridium 41 - Orbit

View from above orbital plane
View from above orbital plane
View from above satellite
View from above satellite

Ground track
Ground track

The orbit data is extracted from the following two-line orbital elements,

1 25040U 97069B   15186.43662932  .00000305  00000-0  10172-3 0  9990
2 25040 086.3973 319.8468 0002368 096.3741 324.3618 14.34220428924155
Epoch (UTC): 05 July 2015 10:28:44
Eccentricity: 0.0002368
inclination: 86.3973°
perigee height: 776 km
apogee height: 779 km
right ascension of ascending node: 319.8468°
argument of perigee: 96.3741°
revolutions per day: 14.34220428
mean anomaly at epoch: 324.3618°
orbit number at epoch: 92415

The dashed part of the orbit path shows where the satellite is in the earth's shadow,  

DLR